Location: Drocourt
(49.0571°N, 1.7669°E)
Time: 14:40:42
(UTC+00:00)

Vanguard 3 - Pass Details

Date: 16 April 2024
Orbit: 509 x 3233 km, 33.3° (Epoch: 22 May)

Event Time Altitude Azimuth Distance (km) Brightness Sun altitude
Rises 06:12:20 0° 235° (SW) 5,170 10.7 11.0°
Reaches altitude 10° 06:17:24 10° 221° (SW) 3,610 10.1 11.8°
Maximum altitude 06:23:06 19° 180° (S) 2,327 9.6 12.7°
Drops below altitude 10° 06:27:14 10° 136° (SE) 2,489 10.4 13.4°
Sets 06:29:56 0° 117° (ESE) 3,141 11.4 13.9°
